When you browse on this site, cookies collect data to enhance your experience and personalize the content and advertising you see.
Visit our Privacy Policy to learn more. By continuing to use the site, you agree to this use of cookies and data.
  • En España
  • Lista de países
  • Para 7 días
  • Temperatura del agua
  • El tiempo en el mapa
  • Informadores
  • user-avatar
    Iniciar sesión

    Tiempo cada hora Sada

    Hoy, 17 Febrero, Lunes

    Tiempo Temperatura Precipitaciones Viento Presión Humedad
    00:00 +13°C° 0 mm 0 mps 571 mmHg 43%
    01:00 +13°C° 0 mm 1 mps 570 mmHg 44%
    02:00 +12°C° 0 mm 1 mps 569 mmHg 45%
    03:00 +11°C° 0 mm 0 mps 568 mmHg 47%
    04:00 +12°C° 0 mm 1 mps 568 mmHg 45%
    05:00 +12°C° 0 mm 1 mps 569 mmHg 43%
    06:00 +11°C° 0 mm 1 mps 569 mmHg 42%
    07:00 +13°C° 0 mm 1 mps 570 mmHg 36%
    08:00 +15°C° 0 mm 1 mps 571 mmHg 31%
    09:00 +19°C° 0 mm 1 mps 572 mmHg 25%
    10:00 +19°C° 0 mm 2 mps 573 mmHg 25%
    11:00 +20°C° 0 mm 3 mps 573 mmHg 24%
    12:00 +21°C° 0 mm 3 mps 573 mmHg 23%
    13:00 +21°C° 0 mm 3 mps 573 mmHg 26%
    14:00 +21°C° 0 mm 4 mps 572 mmHg 29%
    15:00 +21°C° 0 mm 4 mps 572 mmHg 31%
    16:00 +20°C° 0 mm 3 mps 571 mmHg 37%
    17:00 +19°C° 0 mm 3 mps 571 mmHg 43%
    18:00 +18°C° 0 mm 2 mps 571 mmHg 50%
    19:00 +17°C° 0 mm 2 mps 571 mmHg 52%
    20:00 +16°C° 0 mm 1 mps 571 mmHg 54%
    21:00 +16°C° 0 mm 1 mps 571 mmHg 56%
    22:00 +14°C° 0 mm 0 mps 571 mmHg 54%
    23:00 +14°C° 0 mm 0 mps 571 mmHg 52%

    Mañana, 18 Febrero, Martes

    Tiempo Temperatura Precipitaciones Viento Presión Humedad
    00:00 +13°C° 0 mm 0 mps 571 mmHg 51%
    01:00 +14°C° 0 mm 1 mps 570 mmHg 49%
    02:00 +13°C° 0 mm 1 mps 569 mmHg 48%
    03:00 +13°C° 0 mm 1 mps 569 mmHg 46%
    04:00 +13°C° 0 mm 1 mps 569 mmHg 44%
    05:00 +12°C° 0 mm 1 mps 569 mmHg 43%
    06:00 +12°C° 0 mm 1 mps 569 mmHg 41%
    07:00 +14°C° 0 mm 1 mps 570 mmHg 38%
    08:00 +15°C° 0 mm 1 mps 571 mmHg 34%
    09:00 +18°C° 0 mm 1 mps 573 mmHg 31%
    10:00 +19°C° 0 mm 1 mps 573 mmHg 31%
    11:00 +20°C° 0 mm 2 mps 573 mmHg 31%
    12:00 +21°C° 0 mm 2 mps 573 mmHg 31%
    13:00 +21°C° 0 mm 3 mps 573 mmHg 36%
    14:00 +21°C° 0 mm 3 mps 573 mmHg 40%
    15:00 +20°C° 0 mm 4 mps 572 mmHg 44%
    16:00 +19°C° 0 mm 3 mps 572 mmHg 50%
    17:00 +18°C° 0 mm 3 mps 571 mmHg 57%
    18:00 +17°C° 0 mm 2 mps 571 mmHg 63%
    19:00 +17°C° 0 mm 2 mps 571 mmHg 61%
    20:00 +18°C° 0 mm 1 mps 571 mmHg 60%
    21:00 +16°C° 0 mm 1 mps 572 mmHg 58%
    22:00 +16°C° 0 mm 1 mps 571 mmHg 57%
    23:00 +15°C° 0 mm 1 mps 571 mmHg 56%

    Pasado mañana, 19 Febrero, Miércoles

    Tiempo Temperatura Precipitaciones Viento Presión Humedad
    00:00 +14°C° 0 mm 0 mps 571 mmHg 54%
    01:00 +13°C° 0 mm 0 mps 570 mmHg 55%
    02:00 +13°C° 0 mm 0 mps 570 mmHg 55%
    03:00 +12°C° 0 mm 0 mps 569 mmHg 55%
    04:00 +12°C° 0 mm 0 mps 569 mmHg 56%
    05:00 +11°C° 0 mm 0 mps 569 mmHg 58%
    06:00 +11°C° 0 mm 0 mps 569 mmHg 59%
    07:00 +13°C° 0 mm 0 mps 570 mmHg 53%
    08:00 +15°C° 0 mm 1 mps 571 mmHg 48%
    09:00 +18°C° 0 mm 1 mps 572 mmHg 43%
    10:00 +18°C° 0 mm 2 mps 572 mmHg 42%
    11:00 +19°C° 0 mm 3 mps 572 mmHg 40%
    12:00 +21°C° 0 mm 3 mps 573 mmHg 39%
    13:00 +21°C° 0 mm 4 mps 572 mmHg 41%
    14:00 +21°C° 0 mm 4 mps 572 mmHg 43%
    15:00 +20°C° 0 mm 4 mps 571 mmHg 45%
    16:00 +19°C° 0 mm 4 mps 571 mmHg 50%
    17:00 +18°C° 0 mm 3 mps 570 mmHg 55%
    18:00 +17°C° 0 mm 3 mps 570 mmHg 60%
    19:00 +17°C° 0 mm 2 mps 570 mmHg 63%
    20:00 +16°C° 0 mm 2 mps 570 mmHg 66%
    21:00 +15°C° 0 mm 1 mps 570 mmHg 68%
    22:00 +15°C° 0 mm 1 mps 570 mmHg 68%
    23:00 +15°C° 0 mm 1 mps 570 mmHg 68%

    20 Febrero, Jueves

    Tiempo Temperatura Precipitaciones Viento Presión Humedad
    00:00 +14°C° 0 mm 1 mps 569 mmHg 67%
    01:00 +14°C° 0 mm 1 mps 569 mmHg 68%
    02:00 +13°C° 0 mm 1 mps 569 mmHg 69%
    03:00 +13°C° 0 mm 1 mps 568 mmHg 70%
    04:00 +13°C° 0 mm 1 mps 568 mmHg 71%
    05:00 +12°C° 0 mm 1 mps 568 mmHg 71%
    06:00 +12°C° 0 mm 1 mps 568 mmHg 72%
    07:00 +13°C° 0 mm 1 mps 569 mmHg 66%
    08:00 +14°C° 0 mm 2 mps 570 mmHg 61%
    09:00 +15°C° 0 mm 2 mps 571 mmHg 55%
    10:00 +16°C° 0 mm 3 mps 571 mmHg 52%
    11:00 +17°C° 0 mm 3 mps 571 mmHg 50%
    12:00 +19°C° 0 mm 4 mps 571 mmHg 47%
    13:00 +18°C° 0 mm 4 mps 571 mmHg 51%
    14:00 +18°C° 0 mm 4 mps 571 mmHg 55%
    15:00 +18°C° 0 mm 4 mps 570 mmHg 58%
    16:00 +17°C° 0 mm 3 mps 570 mmHg 63%
    17:00 +16°C° 0 mm 3 mps 570 mmHg 67%
    18:00 +15°C° 0 mm 2 mps 570 mmHg 72%
    19:00 +15°C° 0 mm 2 mps 570 mmHg 72%
    20:00 +15°C° 0 mm 1 mps 570 mmHg 73%
    21:00 +13°C° 0 mm 0 mps 570 mmHg 74%
    22:00 +14°C° 0 mm 1 mps 570 mmHg 74%
    23:00 +14°C° 0 mm 1 mps 570 mmHg 74%

    21 Febrero, Viernes

    Tiempo Temperatura Precipitaciones Viento Presión Humedad
    00:00 +13°C° 0 mm 1 mps 570 mmHg 74%
    01:00 +13°C° 0 mm 1 mps 569 mmHg 73%
    02:00 +13°C° 0 mm 1 mps 569 mmHg 71%
    03:00 +12°C° 0 mm 1 mps 569 mmHg 69%
    04:00 +12°C° 0 mm 2 mps 569 mmHg 69%
    05:00 +10°C° 0 mm 2 mps 569 mmHg 69%
    06:00 +10°C° 0 mm 2 mps 569 mmHg 69%
    07:00 +12°C° 0 mm 2 mps 569 mmHg 63%
    08:00 +13°C° 0 mm 2 mps 570 mmHg 56%
    09:00 +14°C° 0 mm 2 mps 571 mmHg 50%
    16:00 +19°C° 0 mm 3 mps 571 mmHg 50%
    17:00 +17°C° 0 mm 3 mps 570 mmHg 56%
    18:00 +16°C° 0 mm 2 mps 570 mmHg 62%
    19:00 +16°C° 0 mm 2 mps 570 mmHg 64%
    20:00 +15°C° 0 mm 1 mps 571 mmHg 65%
    21:00 +14°C° 0 mm 0 mps 571 mmHg 67%
    22:00 +13°C° 0 mm 0 mps 571 mmHg 68%
    23:00 +13°C° 0 mm 0 mps 570 mmHg 68%

    22 Febrero, Sábado

    Tiempo Temperatura Precipitaciones Viento Presión Humedad
    00:00 +14°C° 0 mm 1 mps 570 mmHg 69%
    01:00 +13°C° 0 mm 1 mps 570 mmHg 68%
    02:00 +12°C° 0 mm 0 mps 569 mmHg 67%
    03:00 +12°C° 0 mm 0 mps 569 mmHg 67%
    04:00 +11°C° 0 mm 0 mps 569 mmHg 66%
    05:00 +11°C° 0 mm 0 mps 569 mmHg 65%
    06:00 +11°C° 0 mm 0 mps 569 mmHg 64%
    07:00 +14°C° 0 mm 1 mps 570 mmHg 57%
    08:00 +15°C° 0 mm 1 mps 571 mmHg 51%
    09:00 +17°C° 0 mm 2 mps 572 mmHg 45%
    10:00 +18°C° 0 mm 2 mps 572 mmHg 44%
    11:00 +18°C° 0 mm 3 mps 572 mmHg 43%
    12:00 +19°C° 0 mm 4 mps 573 mmHg 42%
    13:00 +19°C° 0 mm 4 mps 572 mmHg 42%
    14:00 +19°C° 0 mm 4 mps 572 mmHg 42%
    15:00 +20°C° 0 mm 5 mps 571 mmHg 42%
    16:00 +18°C° 0 mm 4 mps 571 mmHg 48%
    17:00 +17°C° 0 mm 3 mps 570 mmHg 54%
    18:00 +16°C° 0 mm 2 mps 570 mmHg 60%
    19:00 +15°C° 0 mm 2 mps 570 mmHg 63%
    20:00 +15°C° 0 mm 2 mps 570 mmHg 65%
    21:00 +14°C° 0 mm 1 mps 570 mmHg 68%
    22:00 +14°C° 0 mm 1 mps 570 mmHg 66%
    23:00 +13°C° 0 mm 1 mps 570 mmHg 64%
    Mostrar más